Regional Weather Roundup
Issued by NWS

Home | Current Version | Previous Version | Text Only | Print | Product List | Glossary On
Versions: 1 2 3 4 5 6 7 8 9 10 11 12 13 14 15 16 17 18 19 20 21 22 23 24 25 26 27 28 29 30 31 32 33 34 35 36 37 38 39 40 41 42 43 44 45 46 47 48 49 50
000
ASUS43 KOAX 300710
RWRNE

WEATHER ROUNDUP FOR NEBRASKA
NATIONAL WEATHER SERVICE OMAHA NE
200 AM CDT MON MAR 30 2015

NOTES: SATELLITE DATA IS BEING USED TO AUGMENT CLOUD COVER ABOVE
       12000 FEET.
       "FAIR" INDICATES FEW OR NO CLOUDS BELOW 12,000 FEET WITH NO
       SIGNIFICANT WEATHER AND/OR OBSTRUCTIONS TO VISIBILITY.

  * THESE STATIONS DO NOT REPORT WEATHER SUCH AS RAIN...SNOW OR FOG.

NEZ001>004-019>022-054>056-300800-
NEBRASKA PANHANDLE

CITY           SKY/WX    TMP DP  RH WIND       PRES   REMARKS
SCOTTSBLUFF    PTCLDY    43  24  47 E5        30.09S
ALLIANCE       PTCLDY    38  25  59 SE7       30.09S WCI  33
CHADRON        CLEAR     38  26  62 CALM      30.05S
KIMBALL        CLEAR     39  22  51 SW6       30.10F WCI  35
SIDNEY         CLEAR     44  23  43 SW17      30.11F
$$

NEZ057>060-069>072-079>082-300800-
SOUTHWEST NEBRASKA

CITY           SKY/WX    TMP DP  RH WIND       PRES   REMARKS
NORTH PLATTE   CLEAR     40  18  41 S6        30.13S
IMPERIAL         N/A     44  19  36 S12       30.14F
LEXINGTON      PTCLDY    42  18  38 S8        30.14F
MCCOOK         CLEAR     43  16  33 S9        30.15F
OGALLALA       CLEAR     41  19  42 SW7       30.11F
$$

NEZ005>010-023>029-035>040-094-300800-
NORTH CENTRAL NEBRASKA

CITY           SKY/WX    TMP DP  RH WIND       PRES   REMARKS
VALENTINE      PTCLDY    43  24  47 S3        30.07S
AINSWORTH      MOCLDY    44  21  40 S5        30.09R
BROKEN BOW     PTCLDY    32  17  54 CALM      30.12S
O`NEILL        CLOUDY    42  24  48 SW6       30.09R
ORD            PTCLDY    30  19  63 CALM      30.11S
THEDFORD       MOCLDY    46  17  32 S7        30.11S
$$

NEZ041-046>049-061>064-073>077-083>087-300800-
SOUTH CENTRAL NEBRASKA

CITY           SKY/WX    TMP DP  RH WIND       PRES   REMARKS
GRAND ISLAND   CLEAR     39  20  46 SW6       30.15R WCI  35
AURORA         CLEAR     36  20  52 SW9       30.14R WCI  29
HASTINGS       PTCLDY    38  17  42 SW6       30.15R WCI  33
HEBRON         PTCLDY    31  24  74 CALM      30.16F
HOLDREGE       PTCLDY    46  14  27 S9        30.16S
KEARNEY *      PTCLDY    43  16  33 SW10      30.15S
YORK           CLEAR     34  23  64 SW9       30.14R WCI  26
$$

NEZ011>018-030>034-042>045-300800-
NORTHEAST NEBRASKA

CITY           SKY/WX    TMP DP  RH WIND       PRES   REMARKS
NORFOLK        PTCLDY    33  25  72 SE5       30.08F WCI  29
ALBION         PTCLDY    40  18  40 CALM      30.11R
BLAIR          PTCLDY    44  22  42 CALM      30.10S
COLUMBUS *     PTCLDY    28  18  64 CALM      30.12F
FREMONT        PTCLDY    34  24  66 W3        30.12R
TEKAMAH        CLEAR     33  19  56 SE7       30.11R WCI  27
WAYNE          MOCLDY    33  22  65 S5        30.10S WCI  28
$$

NEZ050>053-065>068-078-088>093-300800-
SOUTHEAST NEBRASKA

CITY           SKY/WX    TMP DP  RH WIND       PRES   REMARKS
LINCOLN        CLEAR     34  25  69 S3        30.15S
OMAHA EPPLEY   PTCLDY    40  28  62 SE6       30.11S
BEATRICE       CLEAR     33  26  76 CALM      30.16S
FALLS CITY     PTCLDY    36  27  69 CALM      30.15S
NEBRASKA CITY  PTCLDY    39  23  51 SW9       30.14R WCI  33
PLATTSMOUTH    PTCLDY    43  20  40 SW7       30.12R
$$

NEZ044-045-051>053-067-300800-
OMAHA AREA

CITY           SKY/WX    TMP DP  RH WIND       PRES   REMARKS
OMAHA EPPLEY   PTCLDY    40  28  62 SE6       30.11S
BLAIR          PTCLDY    44  22  42 CALM      30.10S
FREMONT        PTCLDY    34  24  66 W3        30.12R
MILLARD        PTCLDY    36  29  75 CALM      30.12S
OFFUTT AFB     PTCLDY    32  25  77 SW1       30.11S
PLATTSMOUTH    PTCLDY    43  20  40 SW7       30.12R
WAHOO          FAIR      41  24  51 SW8       30.12S
$$


USA.gov is the U.S. government's official web portal to all federal, state and local government web resources and services.